Location: Shenandoah County Park
(38.9356°N, 78.4524°W)
Time: 14:25:57
(UTC-05:00)

Vanguard 2 Rocket - Pass Details

Date: 09 December 2023
Orbit: 555 x 3309 km, 32.9° (Epoch: 03 March)

Event Time Altitude Azimuth Distance (km) Brightness Sun altitude
Rises 17:05:10 0° 273° (W) 6,668 12.5 -3.2°
Reaches altitude 10° 17:09:15 10° 271° (W) 5,880 12.2 -3.9°
Maximum altitude 17:28:35 67° 195° (SSW) 3,475 10.0 -7.3°
Drops below altitude 10° 17:46:24 10° 118° (ESE) 5,476 10.5 -10.5°
Sets 17:50:04 0° 116° (ESE) 6,209 10.7 -11.2°
